TimeCDT,TemperatureF,Dew PointF,Humidity,Sea Level PressureIn,VisibilityMPH,Wind Direction,Wind SpeedMPH,Gust SpeedMPH,PrecipitationIn,Events,Conditions,WindDirDegrees,DateUTC
12:52 AM,68.0,64.9,90,29.96,10.0,Calm,Calm,-,N/A,,Clear,0,2013-09-08 05:52:00
1:52 AM,68.0,64.9,90,29.95,10.0,Calm,Calm,-,N/A,,Clear,0,2013-09-08 06:52:00
2:52 AM,70.0,64.0,81,29.94,10.0,Calm,Calm,-,N/A,,Clear,0,2013-09-08 07:52:00
3:52 AM,69.1,64.9,87,29.94,10.0,Calm,Calm,-,N/A,,Clear,0,2013-09-08 08:52:00
4:52 AM,68.0,64.9,90,29.94,10.0,South,3.5,-,N/A,,Clear,190,2013-09-08 09:52:00
5:52 AM,68.0,64.9,90,29.95,10.0,Calm,Calm,-,N/A,,Clear,0,2013-09-08 10:52:00
6:52 AM,70.0,66.0,87,29.94,9.0,South,3.5,-,N/A,,Clear,170,2013-09-08 11:52:00
7:52 AM,73.9,69.1,85,29.95,9.0,Calm,Calm,-,N/A,,Clear,0,2013-09-08 12:52:00
8:52 AM,75.0,68.0,79,29.96,10.0,SSW,4.6,-,N/A,,Clear,200,2013-09-08 13:52:00
9:52 AM,78.1,69.1,74,29.99,10.0,North,4.6,-,N/A,,Clear,350,2013-09-08 14:52:00
10:52 AM,79.0,68.0,69,30.00,10.0,NNW,8.1,-,N/A,,Clear,330,2013-09-08 15:52:00
11:52 AM,81.0,68.0,65,29.99,10.0,North,3.5,-,N/A,,Clear,10,2013-09-08 16:52:00
12:52 PM,80.1,70.0,71,29.96,10.0,SE,3.5,-,N/A,,Mostly Cloudy,130,2013-09-08 17:52:00
1:52 PM,81.0,71.1,72,29.96,10.0,Calm,Calm,-,0.00,,Partly Cloudy,0,2013-09-08 18:52:00
2:52 PM,81.0,71.1,72,29.94,10.0,Calm,Calm,-,0.00,,Clear,0,2013-09-08 19:52:00
3:52 PM,81.0,72.0,74,29.94,10.0,Calm,Calm,-,N/A,,Clear,0,2013-09-08 20:52:00
4:52 PM,80.1,73.0,79,29.92,9.0,ESE,4.6,-,N/A,,Clear,110,2013-09-08 21:52:00
5:52 PM,80.1,73.0,79,29.92,9.0,ESE,3.5,-,N/A,,Clear,120,2013-09-08 22:52:00
6:52 PM,78.1,71.1,79,29.92,8.0,SE,3.5,-,N/A,,Mostly Cloudy,130,2013-09-08 23:52:00
7:52 PM,77.0,71.1,82,29.93,9.0,Calm,Calm,-,N/A,,Overcast,0,2013-09-09 00:52:00
8:52 PM,75.0,70.0,84,29.94,8.0,Calm,Calm,-,N/A,,Mostly Cloudy,0,2013-09-09 01:52:00
9:52 PM,73.9,70.0,87,29.94,7.0,SE,3.5,-,N/A,,Scattered Clouds,130,2013-09-09 02:52:00
10:52 PM,75.0,71.1,87,29.94,8.0,Calm,Calm,-,N/A,,Overcast,0,2013-09-09 03:52:00
11:52 PM,73.0,71.1,93,29.94,7.0,Calm,Calm,-,N/A,,Mostly Cloudy,0,2013-09-09 04:52:00